[[{"header":{"parameterUnit":"m.s-1","parameterCategory":2,"la1":30.2991,"la2":30.254,"lo1":-89.0895,"lo2":-89.0444,"dy":0.0017,"dx":0.0017,"nx":28,"ny":28,"refTime":"2024-05-02T21:00:00:Z","depth":"0","parameterNumber":2,"parameterNumberName":"U-component_of_CURRENTS"},"data":[0,0,0,0,0,0,0,0,0,0,0,0,0,0,0,0,0,0,0,0,0,0,0,0,0,0,0,0,0,0,0,0,0,0,0,0,0,0,0,0,0,0,0,0,0,0,0,0,0,0,0,0,0,0,0,0,0,0,-0.2067,-0.2068,0,-0.2148,-0.2149,-0.2149,-0.2125,-0.2124,-0.2123,-0.2122,-0.2074,-0.2074,-0.2074,0,0,0,0,0,0,0,0,0,0,0,0,0,-0.1871,-0.1875,-0.2067,-0.2068,-0.207,-0.2148,-0.2149,-0.2149,-0.2125,-0.2124,-0.2122,-0.2121,-0.2074,-0.2074,-0.2073,0,0,0,0,0,0,0,0,0,0,0,0,0,-0.1948,-0.1876,-0.2066,-0.2072,-0.2074,-0.2148,-0.2149,-0.2149,-0.2125,-0.2124,-0.2122,-0.212,-0.2074,-0.2074,-0.2073,-0.2103,0,0,-0.2072,-0.2072,0,0,0,0,0,0,0,0,-0.1944,-0.1955,-0.207,-0.2072,-0.2074,-0.2131,-0.2063,-0.213,-0.2126,-0.2099,-0.2122,-0.212,-0.2087,-0.2085,-0.2096,-0.2101,-0.2099,-0.2072,-0.2072,-0.2072,-0.2072,0,0,0,0,0,0,0,-0.1939,-0.1951,-0.2092,-0.2072,-0.2075,-0.2065,-0.2074,-0.2075,-0.2093,-0.2101,-0.2101,-0.2122,-0.2086,-0.2097,-0.2095,-0.2098,-0.2072,-0.2072,-0.2072,-0.2071,-0.2168,-0.217,0,0,0,0,0,0,-0.1946,-0.1947,-0.209,-0.2095,-0.2012,-0.2071,-0.208,-0.2109,-0.2096,-0.2095,-0.2123,-0.212,-0.2098,-0.2095,-0.2093,-0.2168,-0.2072,-0.2071,-0.2071,-0.2165,-0.2168,-0.2171,0,0,0,0,0,0,-0.1942,-0.1959,-0.2086,-0.2027,-0.2044,-0.2077,-0.2109,-0.2111,-0.2115,-0.2115,-0.211,-0.2124,-0.2097,-0.2093,-0.2118,-0.2164,-0.2071,-0.2071,-0.2162,-0.2166,-0.217,-0.2292,0,0,0,0,0,0,-0.1936,-0.1957,-0.1956,-0.2028,-0.2048,-0.2147,-0.2111,-0.2114,-0.2135,-0.2131,-0.2115,-0.2109,-0.2095,-0.212,-0.2118,-0.2162,-0.2071,-0.2158,-0.2163,-0.2168,-0.2284,-0.23,-0.2313,0,0,0,0,0,-0.1929,-0.1938,-0.1956,-0.1972,-0.2055,-0.215,-0.2159,-0.2171,-0.2136,-0.2161,-0.2153,-0.2109,-0.2151,-0.2122,-0.2119,-0.2164,-0.2155,-0.2162,-0.2168,-0.2278,-0.2297,-0.2313,0,0,0,0,0,0,-0.185,-0.194,-0.196,-0.1995,-0.2078,-0.2149,-0.2155,-0.2172,-0.2186,-0.2166,-0.2144,-0.2142,-0.2186,-0.2159,-0.2127,-0.2209,-0.2147,-0.2153,-0.2231,-0.2249,-0.2263,-0.2205,-0.207,0,0,0,0,0,-0.184,-0.1865,-0.1973,-0.2,-0.2039,-0.2096,-0.2123,-0.2154,-0.2189,-0.2191,-0.2194,-0.2192,-0.2215,-0.2216,-0.2232,-0.2268,-0.2187,-0.2297,-0.2311,-0.2323,-0.2278,-0.2261,-0.2268,-0.2192,-0.2192,-0.2192,0,0,-0.1818,-0.1867,-0.1882,-0.1984,-0.2031,-0.2109,-0.2106,-0.2167,-0.2221,-0.2183,-0.2228,-0.2244,-0.2238,-0.2296,-0.2311,-0.2273,-0.2298,-0.2331,-0.2342,-0.2287,-0.2268,-0.2275,-0.2281,-0.2196,-0.2195,-0.2195,0,0,-0.1797,-0.1837,-0.186,-0.1937,-0.2033,-0.2098,-0.2121,-0.2216,-0.224,-0.2315,-0.2302,-0.2341,-0.2373,-0.239,-0.2395,-0.2492,-0.2382,-0.2504,-0.2519,-0.2507,-0.2512,-0.2515,-0.2389,-0.2379,-0.2503,-0.2503,-0.2504,0,-0.1771,-0.181,-0.1884,-0.1942,-0.199,-0.2096,-0.2151,-0.2223,-0.2315,-0.2317,-0.2341,-0.2392,-0.2417,-0.2449,-0.2504,-0.2522,-0.2447,-0.2457,-0.2522,-0.2524,-0.2525,-0.2394,-0.2383,-0.251,-0.2509,-0.2509,-0.2508,0,-0.1786,-0.182,-0.1843,-0.1952,-0.2027,-0.2093,-0.2225,-0.2289,-0.2337,-0.2386,-0.244,-0.2499,-0.2501,-0.2561,-0.2566,-0.2596,-0.2514,-0.255,-0.247,-0.2539,-0.2398,-0.2383,-0.2519,-0.2517,-0.2515,-0.2513,0,0,-0.1749,-0.183,-0.1842,-0.186,-0.2029,-0.2087,-0.2199,-0.2297,-0.2298,-0.2433,-0.2409,-0.2552,-0.2549,-0.2554,-0.2585,-0.2604,-0.2584,-0.258,-0.2576,-0.2433,-0.2454,-0.2325,-0.2295,-0.2633,-0.2632,-0.2632,-0.2339,0,-0.1741,-0.1782,-0.1853,-0.1921,-0.1962,-0.2084,-0.2154,-0.2256,-0.2331,-0.2347,-0.2432,-0.2441,-0.2559,-0.2542,-0.2599,-0.2582,-0.2556,-0.2652,-0.2422,-0.2411,-0.2275,-0.228,-0.223,-0.196,-0.2324,-0.2321,-0.2319,0,-0.1761,-0.1768,-0.18,-0.1846,-0.1873,-0.1936,-0.2015,-0.2096,-0.2175,-0.2208,-0.2267,-0.2304,-0.236,-0.2442,-0.245,-0.2499,-0.2466,-0.2464,-0.2454,-0.2267,-0.2257,-0.1958,-0.1918,-0.1936,-0.2296,-0.2298,-0.2299,0,-0.1689,-0.1745,-0.1735,-0.1772,-0.1859,-0.1871,-0.1927,-0.2027,-0.2058,-0.2093,-0.208,-0.2159,-0.2152,-0.2202,-0.2244,-0.2327,-0.2183,-0.2294,-0.2121,-0.2107,-0.1978,-0.1955,-0.1908,-0.2241,-0.2242,-0.2243,-0.2244,0,-0.1677,-0.1677,-0.1678,-0.1686,-0.1668,-0.1758,-0.1758,-0.1827,-0.1865,-0.1871,-0.1977,-0.1973,-0.21,-0.2067,-0.2128,-0.2042,-0.2086,-0.2068,-0.2031,-0.2016,-0.2001,-0.194,-0.1985,-0.2232,-0.2234,-0.2237,-0.2238,0,-0.1651,-0.165,-0.1639,-0.1645,-0.1646,-0.1641,-0.1684,-0.1691,-0.1716,-0.1719,-0.1717,-0.1784,-0.1751,-0.1798,-0.1793,-0.1838,-0.1755,-0.1738,-0.1647,-0.1608,-0.1523,-0.1576,-0.1382,-0.1342,-0.1508,-0.1503,-0.1499,0,-0.1648,-0.1626,-0.16,-0.1592,-0.1598,-0.1588,-0.1605,-0.1637,-0.1653,-0.163,-0.1621,-0.1545,-0.1538,-0.1418,-0.1441,-0.138,-0.1491,-0.1282,-0.148,-0.1453,-0.1487,-0.1545,-0.1534,-0.1332,-0.1326,-0.1322,-0.1319,0,-0.1636,-0.1614,-0.1598,-0.1563,-0.1557,-0.1551,-0.1555,-0.1525,-0.1555,-0.1523,-0.1465,-0.1417,-0.1284,-0.1219,-0.1092,-0.1101,-0.127,-0.1192,-0.1228,-0.1367,-0.1361,-0.1326,-0.1517,-0.1282,-0.1286,-0.1288,-0.129,-0.1292,-0.1631,-0.1607,-0.157,-0.1544,-0.154,-0.1513,-0.1472,-0.1464,-0.1421,-0.1337,-0.133,-0.1226,-0.1134,-0.098,-0.0931,-0.0851,-0.0958,-0.0925,-0.0981,-0.1032,-0.1042,-0.1078,-0.0792,-0.0793,-0.0794,-0.0794,-0.0795,0,-0.162,-0.1585,-0.1562,-0.1517,-0.1504,-0.1501,-0.1452,-0.1383,-0.1299,-0.1223,-0.1138,-0.1042,-0.0912,-0.0844,-0.075,-0.0709,-0.0748,-0.0705,-0.084,-0.0837,-0.0907,-0.0955,-0.0615,-0.0615,-0.0615,-0.0615,-0.0615,-0.0615,-0.1612,-0.1569,-0.1542,-0.1487,-0.1462,-0.1394,-0.1342,-0.1231,-0.1143,-0.0988,-0.0922,-0.0877,-0.0836,-0.0843,-0.075,-0.0696,-0.0743,-0.067,-0.0704,-0.0854,-0.0884,-0.0912,-0.097,-0.0638,-0.0638,-0.063,-0.063,-0.063]},{"header":{"parameterUnit":"m.s-1","parameterCategory":2,"la1":30.2991,"la2":30.254,"lo1":-89.0895,"lo2":-89.0444,"dy":0.0017,"dx":0.0017,"nx":28,"ny":28,"refTime":"2024-05-02T21:00:00:Z","depth":"0","parameterNumber":3,"parameterNumberName":"V-component_of_CURRENTS"},"data":[0,0,0,0,0,0,0,0,0,0,0,0,0,0,0,0,0,0,0,0,0,0,0,0,0,0,0,0,0,0,0,0,0,0,0,0,0,0,0,0,0,0,0,0,0,0,0,0,0,0,0,0,0,0,0,0,0,0,-0.0095,-0.0094,0,-0.0034,-0.0033,-0.0032,-0.0024,-0.0025,-0.0026,-0.0026,0.0086,0.0089,0.0093,0,0,0,0,0,0,0,0,0,0,0,0,0,-0.0232,-0.0229,-0.0095,-0.0094,-0.0093,-0.0034,-0.0033,-0.0032,-0.0024,-0.0025,-0.0026,-0.0027,0.0085,0.0089,0.0093,0,0,0,0,0,0,0,0,0,0,0,0,0,-0.0172,-0.0228,-0.0095,-0.0082,-0.0081,-0.0034,-0.0033,-0.0032,-0.0024,-0.0025,-0.0026,-0.0027,0.0083,0.0088,0.0094,0.0145,0,0,0.011,0.0112,0,0,0,0,0,0,0,0,-0.0175,-0.0166,-0.0085,-0.0083,-0.0081,-0.0038,-0.004,0.003,-0.0024,-0.0045,-0.0026,-0.0027,0.005,0.0058,0.0071,0.015,0.0155,0.011,0.0114,0.0116,0.0117,0,0,0,0,0,0,0,-0.0179,-0.0169,-0.007,-0.0084,-0.0082,-0.0089,-0.0081,-0.0027,0.0008,-0.0044,-0.0043,-0.0036,0.0051,0.0066,0.0074,0.0156,0.011,0.0115,0.0118,0.012,0.0329,0.0331,0,0,0,0,0,0,-0.0184,-0.0172,-0.0072,-0.0068,-0.0131,-0.0086,-0.0077,-0.0051,0.0006,0.0013,-0.0035,-0.0036,0.0057,0.0067,0.0078,0.0142,0.0116,0.0121,0.0124,0.0326,0.0329,0.0332,0,0,0,0,0,0,-0.0187,-0.0175,-0.0075,-0.0121,-0.0109,-0.0082,-0.0053,-0.0049,-0.0038,0.0012,0.002,-0.003,0.0057,0.007,0.0133,0.0146,0.0123,0.0128,0.0324,0.0327,0.0331,0.027,0,0,0,0,0,0,-0.019,-0.0175,-0.0165,-0.012,-0.0106,-0.0052,-0.0052,-0.0047,-0.0033,-0.0033,0.002,0.0029,0.0057,0.0125,0.0139,0.0153,0.0132,0.0321,0.0325,0.0329,0.0269,0.0271,0.0273,0,0,0,0,0,-0.0195,-0.0187,-0.0164,-0.0152,-0.0089,-0.0051,-0.0045,-0.003,-0.0032,-0.0025,0.0019,0.0027,0.0163,0.0131,0.0146,0.0162,0.0319,0.0324,0.0329,0.0268,0.0271,0.0273,0,0,0,0,0,0,-0.0262,-0.0184,-0.0158,-0.0131,-0.0092,-0.005,-0.005,-0.003,0.0009,0.0008,0.0053,0.0066,0.0132,0.0168,0.0131,0.0243,0.0245,0.0254,0.0194,0.0197,0.0199,0.0152,0.0137,0,0,0,0,0,-0.0263,-0.0228,-0.0162,-0.0146,-0.0123,-0.0082,-0.0068,-0.005,-0.0009,0.0005,0.0047,0.0105,0.0169,0.0195,0.0257,0.031,0.0323,0.0338,0.034,0.0341,0.0318,0.0351,0.0351,0.0349,0.0349,0.0349,0,0,-0.0293,-0.0243,-0.0229,-0.0157,-0.0128,-0.01,-0.0076,-0.0054,-0.0036,0.0016,0.0051,0.0115,0.0191,0.0252,0.0284,0.0276,0.0355,0.0347,0.0347,0.0324,0.0356,0.0355,0.0354,0.0353,0.0352,0.0352,0,0,-0.0338,-0.0279,-0.0264,-0.022,-0.0164,-0.0127,-0.0119,-0.0062,-0.0042,0.0014,0.0062,0.0126,0.0217,0.0266,0.0305,0.036,0.0371,0.0394,0.035,0.0382,0.0381,0.0379,0.0405,0.0406,0.0384,0.0384,0.0384,0,-0.0379,-0.0334,-0.0262,-0.0233,-0.0207,-0.014,-0.0126,-0.0087,-0.0021,-0.0002,0.0018,0.0153,0.022,0.0286,0.031,0.0358,0.0373,0.0324,0.0377,0.0376,0.0376,0.0403,0.0405,0.0382,0.0382,0.0383,0.0383,0,-0.0401,-0.0365,-0.0357,-0.0284,-0.0247,-0.0225,-0.015,-0.0115,-0.0074,-0.0036,0.0038,0.013,0.0198,0.0249,0.0295,0.0341,0.0352,0.0376,0.0351,0.0371,0.04,0.0403,0.0379,0.038,0.038,0.0381,0,0,-0.0489,-0.0391,-0.0387,-0.0358,-0.0267,-0.0241,-0.0199,-0.0142,-0.0125,-0.0053,-0.0034,0.0094,0.0129,0.0178,0.0251,0.0285,0.0317,0.032,0.0323,0.0309,0.0376,0.037,0.0374,0.0338,0.0338,0.0339,0.0398,0,-0.0528,-0.0494,-0.0429,-0.0401,-0.0371,-0.0289,-0.0255,-0.0196,-0.014,-0.0101,-0.0017,0.0042,0.0107,0.0144,0.0186,0.0286,0.0321,0.0298,0.039,0.0393,0.0355,0.0376,0.0401,0.0454,0.0401,0.0401,0.0402,0,-0.056,-0.0526,-0.051,-0.0435,-0.0416,-0.0394,-0.0326,-0.0285,-0.021,-0.017,-0.0118,-0.0051,0.002,0.0076,0.0198,0.0175,0.0267,0.0338,0.0343,0.0352,0.0393,0.043,0.0462,0.0578,0.0407,0.0407,0.0406,0,-0.0636,-0.0578,-0.0569,-0.0542,-0.0453,-0.044,-0.0397,-0.0319,-0.0285,-0.0224,-0.0204,-0.0121,-0.0075,0.0028,0.0173,0.0186,0.0297,0.0339,0.0418,0.0419,0.0465,0.0469,0.0584,0.0424,0.0423,0.0423,0.0423,0,-0.068,-0.0667,-0.0608,-0.0595,-0.0582,-0.0504,-0.0485,-0.0428,-0.0366,-0.034,-0.0255,-0.0228,-0.0085,-0.0,0.0132,0.0266,0.0264,0.0401,0.0431,0.045,0.0452,0.0573,0.0613,0.0425,0.0425,0.0425,0.0424,0,-0.0742,-0.0705,-0.0686,-0.0627,-0.0611,-0.0602,-0.0534,-0.0519,-0.0456,-0.0425,-0.0411,-0.0313,-0.021,-0.0065,0.0108,0.0213,0.0413,0.0408,0.0412,0.0439,0.0609,0.0644,0.0738,0.0802,0.0496,0.0496,0.0496,0,-0.0763,-0.0764,-0.0725,-0.0721,-0.0695,-0.0671,-0.0651,-0.0573,-0.0554,-0.0475,-0.0471,-0.0375,-0.03,-0.0079,0.0117,0.0318,0.0434,0.0469,0.0507,0.0609,0.0671,0.0687,0.0735,0.0561,0.0561,0.0562,0.0562,0,-0.0802,-0.0798,-0.0785,-0.0786,-0.0778,-0.0754,-0.0723,-0.0719,-0.0637,-0.0612,-0.0564,-0.0504,-0.029,-0.0081,0.0171,0.0313,0.0532,0.0485,0.0604,0.0729,0.0741,0.082,0.0526,0.0567,0.0566,0.0566,0.0566,0.0566,-0.0836,-0.0848,-0.0847,-0.0849,-0.0843,-0.0837,-0.0839,-0.0803,-0.0781,-0.072,-0.0648,-0.0529,-0.0204,0.0141,0.0289,0.0606,0.0582,0.0731,0.0765,0.0771,0.0827,0.0524,0.0585,0.0585,0.0585,0.0584,0.0584,0,-0.0876,-0.089,-0.0902,-0.0906,-0.0925,-0.0897,-0.0886,-0.0892,-0.089,-0.0763,-0.0697,-0.0344,-0.003,0.0298,0.0715,0.0886,0.0944,0.0978,0.1037,0.1077,0.0836,0.0835,0.0936,0.0936,0.0935,0.0935,0.0935,0.0935,-0.0898,-0.0932,-0.0943,-0.0986,-0.0992,-0.1023,-0.103,-0.102,-0.0941,-0.077,-0.055,-0.0353,0.0127,0.0729,0.1117,0.1167,0.1313,0.1281,0.1353,0.1223,0.1203,0.1185,0.1196,0.1371,0.1372,0.1602,0.1604,0.1606]}],[{"header":{"parameterUnit":"m.s-1","parameterCategory":2,"la1":30.2991,"la2":30.254,"lo1":-89.0895,"lo2":-89.0444,"dy":0.0017,"dx":0.0017,"nx":28,"ny":28,"refTime":"2024-05-02T21:00:00:Z","depth":"2","parameterNumber":2,"parameterNumberName":"U-component_of_CURRENTS"},"data":[0,0,0,0,0,0,0,0,0,0,0,0,0,0,0,0,0,0,0,0,0,0,0,0,0,0,0,0,0,0,0,0,0,0,0,0,0,0,0,0,0,0,0,0,0,0,0,0,0,0,0,0,0,0,0,0,0,0,-0.167,-0.167,0,-0.161,-0.1608,-0.1607,-0.1525,-0.1524,-0.1523,-0.1522,-0.1466,-0.1465,-0.1464,0,0,0,0,0,0,0,0,0,0,0,0,0,-0.1638,-0.1639,-0.167,-0.167,-0.167,-0.161,-0.1608,-0.1607,-0.1525,-0.1524,-0.1523,-0.1522,-0.1466,-0.1465,-0.1464,0,0,0,0,0,0,0,0,0,0,0,0,0,-0.1618,-0.164,-0.167,-0.1625,-0.1621,-0.161,-0.1608,-0.1607,-0.1525,-0.1524,-0.1522,-0.1521,-0.1466,-0.1465,-0.1464,-0.1487,0,0,-0.1461,-0.1461,0,0,0,0,0,0,0,0,-0.1619,-0.1619,-0.1632,-0.1628,-0.1623,-0.1578,-0.1577,-0.1568,-0.1526,-0.1556,-0.1522,-0.152,-0.1508,-0.1503,-0.1488,-0.1484,-0.1482,-0.1461,-0.1461,-0.146,-0.146,0,0,0,0,0,0,0,-0.1621,-0.162,-0.1641,-0.1632,-0.1627,-0.1582,-0.1577,-0.1574,-0.1537,-0.1553,-0.1549,-0.155,-0.1504,-0.1489,-0.1486,-0.1481,-0.1461,-0.146,-0.146,-0.1459,-0.1469,-0.147,0,0,0,0,0,0,-0.1644,-0.1623,-0.1643,-0.164,-0.1623,-0.1584,-0.1579,-0.159,-0.1537,-0.1529,-0.1551,-0.1547,-0.1491,-0.1487,-0.1484,-0.1521,-0.146,-0.1459,-0.1459,-0.1468,-0.1469,-0.147,0,0,0,0,0,0,-0.1644,-0.1647,-0.1646,-0.1633,-0.163,-0.1587,-0.1599,-0.1589,-0.159,-0.1536,-0.1526,-0.1565,-0.149,-0.1485,-0.1486,-0.1517,-0.1459,-0.1458,-0.1467,-0.1469,-0.147,-0.1586,0,0,0,0,0,0,-0.1643,-0.1647,-0.1656,-0.1635,-0.1632,-0.1665,-0.1601,-0.1589,-0.1595,-0.1588,-0.1545,-0.1536,-0.1489,-0.1488,-0.1485,-0.1515,-0.1457,-0.1466,-0.1468,-0.1469,-0.1581,-0.1591,-0.1599,0,0,0,0,0,-0.1642,-0.166,-0.1657,-0.1659,-0.1648,-0.1668,-0.1663,-0.1622,-0.1597,-0.1614,-0.157,-0.1539,-0.1495,-0.1488,-0.1485,-0.1515,-0.1466,-0.1467,-0.1469,-0.1577,-0.1589,-0.1599,0,0,0,0,0,0,-0.162,-0.1654,-0.1649,-0.1667,-0.1683,-0.1656,-0.1657,-0.1647,-0.1626,-0.1615,-0.1558,-0.1548,-0.1556,-0.1523,-0.1517,-0.1519,-0.1473,-0.1474,-0.1555,-0.1567,-0.1576,-0.1553,-0.1457,0,0,0,0,0,-0.1632,-0.1668,-0.1684,-0.1697,-0.1711,-0.1695,-0.1695,-0.1685,-0.1667,-0.1655,-0.1626,-0.1587,-0.156,-0.1554,-0.1526,-0.1544,-0.1495,-0.1556,-0.1565,-0.1574,-0.1551,-0.155,-0.1558,-0.1476,-0.1476,-0.1476,0,0,-0.1619,-0.1646,-0.1658,-0.1698,-0.1697,-0.1712,-0.169,-0.1712,-0.1711,-0.1656,-0.1645,-0.1627,-0.1571,-0.1573,-0.1574,-0.1552,-0.1565,-0.1576,-0.1584,-0.1556,-0.1553,-0.1561,-0.1568,-0.1478,-0.1477,-0.1477,0,0,-0.1615,-0.1649,-0.1676,-0.1703,-0.1738,-0.1738,-0.1761,-0.1768,-0.1759,-0.1772,-0.1714,-0.1719,-0.169,-0.1652,-0.1627,-0.1676,-0.1615,-0.1673,-0.1706,-0.1708,-0.1715,-0.172,-0.1645,-0.1643,-0.1679,-0.1679,-0.1679,0,-0.1588,-0.1632,-0.1682,-0.1713,-0.1726,-0.1758,-0.1774,-0.178,-0.1782,-0.1778,-0.1782,-0.174,-0.172,-0.1692,-0.1702,-0.1699,-0.166,-0.1676,-0.1722,-0.1726,-0.173,-0.1652,-0.1648,-0.1685,-0.1684,-0.1684,-0.1683,0,-0.1601,-0.1638,-0.1659,-0.171,-0.1738,-0.1769,-0.1796,-0.1818,-0.1831,-0.183,-0.184,-0.1823,-0.1786,-0.1802,-0.1766,-0.1777,-0.1725,-0.1739,-0.1699,-0.1745,-0.1659,-0.1653,-0.1693,-0.1691,-0.169,-0.1688,0,0,-0.1511,-0.1643,-0.1643,-0.1661,-0.1745,-0.1751,-0.1788,-0.1813,-0.1805,-0.1853,-0.184,-0.1848,-0.1853,-0.1822,-0.1804,-0.1819,-0.1822,-0.1793,-0.1791,-0.1725,-0.1767,-0.167,-0.1653,-0.1857,-0.1857,-0.1857,-0.1689,0,-0.149,-0.1555,-0.1628,-0.1651,-0.1677,-0.1736,-0.1746,-0.1776,-0.1814,-0.1817,-0.1846,-0.1831,-0.1855,-0.1843,-0.187,-0.1828,-0.1814,-0.1861,-0.1723,-0.1716,-0.1633,-0.1647,-0.1564,-0.1403,-0.1682,-0.1681,-0.168,0,-0.1453,-0.151,-0.1562,-0.1614,-0.1624,-0.1644,-0.1668,-0.1687,-0.1729,-0.1751,-0.1791,-0.1806,-0.1816,-0.1844,-0.1812,-0.1842,-0.1799,-0.1782,-0.1776,-0.1635,-0.161,-0.1404,-0.138,-0.1669,-0.167,-0.1671,-0.1672,0,-0.1348,-0.1433,-0.1477,-0.1503,-0.1585,-0.1595,-0.1618,-0.1667,-0.1674,-0.1715,-0.1727,-0.1757,-0.1748,-0.1756,-0.173,-0.1771,-0.1677,-0.1727,-0.1584,-0.1573,-0.1444,-0.1422,-0.1688,-0.1688,-0.1688,-0.1689,-0.1689,0,-0.1282,-0.1295,-0.1431,-0.1448,-0.145,-0.152,-0.1521,-0.155,-0.1594,-0.1599,-0.168,-0.1677,-0.1736,-0.1706,-0.1696,-0.1596,-0.1642,-0.1561,-0.1532,-0.1477,-0.1461,-0.1653,-0.1651,-0.1682,-0.1684,-0.1685,-0.1686,0,-0.1159,-0.1257,-0.1298,-0.1395,-0.1417,-0.1411,-0.1467,-0.1465,-0.1513,-0.1528,-0.1539,-0.1594,-0.1554,-0.156,-0.1525,-0.1512,-0.1452,-0.1393,-0.1282,-0.1245,-0.1348,-0.1354,-0.1228,-0.1223,-0.122,-0.1216,-0.1214,0,-0.1108,-0.1135,-0.1256,-0.1273,-0.1324,-0.1343,-0.136,-0.1418,-0.1427,-0.1472,-0.146,-0.1444,-0.1414,-0.1303,-0.1266,-0.1175,-0.1274,-0.1048,-0.1133,-0.132,-0.1305,-0.1318,-0.1329,-0.0988,-0.0983,-0.098,-0.0977,0,-0.1005,-0.1073,-0.1124,-0.1187,-0.1218,-0.1221,-0.1249,-0.1249,-0.1313,-0.1339,-0.1334,-0.1318,-0.1212,-0.1098,-0.0974,-0.0935,-0.1074,-0.097,-0.1192,-0.1129,-0.1084,-0.1073,-0.1094,-0.0945,-0.0948,-0.0951,-0.0952,-0.0954,-0.0928,-0.0946,-0.1041,-0.1075,-0.1123,-0.1102,-0.1059,-0.1105,-0.1111,-0.113,-0.1168,-0.112,-0.107,-0.0852,-0.0762,-0.0704,-0.0799,-0.0802,-0.0818,-0.0836,-0.0851,-0.0803,-0.0609,-0.061,-0.0611,-0.0612,-0.0613,0,-0.0797,-0.0862,-0.0909,-0.0931,-0.0915,-0.0985,-0.0989,-0.0942,-0.0944,-0.0988,-0.098,-0.0838,-0.0729,-0.0678,-0.0535,-0.0488,-0.0531,-0.0472,-0.0556,-0.0586,-0.0613,-0.0623,-0.0316,-0.0315,-0.0315,-0.0314,0,0,-0.0732,-0.074,-0.0787,-0.0734,-0.0749,-0.0703,-0.0693,-0.0686,-0.0705,-0.0699,-0.0698,-0.0737,-0.0698,-0.0541,-0.0466,-0.0377,-0.0491,-0.035,-0.0588,-0.072,-0.0747,-0.0795,-0.0841,0,0,0,0,0]},{"header":{"parameterUnit":"m.s-1","parameterCategory":2,"la1":30.2991,"la2":30.254,"lo1":-89.0895,"lo2":-89.0444,"dy":0.0017,"dx":0.0017,"nx":28,"ny":28,"refTime":"2024-05-02T21:00:00:Z","depth":"2","parameterNumber":3,"parameterNumberName":"V-component_of_CURRENTS"},"data":[0,0,0,0,0,0,0,0,0,0,0,0,0,0,0,0,0,0,0,0,0,0,0,0,0,0,0,0,0,0,0,0,0,0,0,0,0,0,0,0,0,0,0,0,0,0,0,0,0,0,0,0,0,0,0,0,0,0,0.0016,0.0016,0,0.0036,0.0036,0.0036,0.001,0.0009,0.0009,0.0008,0.0057,0.0059,0.0061,0,0,0,0,0,0,0,0,0,0,0,0,0,-0.0145,-0.0142,0.0016,0.0016,0.0017,0.0036,0.0036,0.0036,0.001,0.0009,0.0009,0.0008,0.0057,0.0059,0.0061,0,0,0,0,0,0,0,0,0,0,0,0,0,-0.0098,-0.0141,0.0016,0.0009,0.0009,0.0036,0.0036,0.0036,0.001,0.0009,0.0008,0.0008,0.0056,0.0059,0.0062,0.0098,0,0,0.007,0.0071,0,0,0,0,0,0,0,0,-0.0101,-0.0093,0.0009,0.001,0.0009,0.0023,-0.0002,0.006,0.0011,0.0006,0.0008,0.0007,0.0052,0.0055,0.0055,0.01,0.0102,0.007,0.0072,0.0073,0.0074,0,0,0,0,0,0,0,-0.0104,-0.0094,0.002,0.001,0.001,-0.0029,-0.0023,0.0008,0.0031,0.0006,0.0005,0.0014,0.0051,0.0052,0.0056,0.0103,0.007,0.0073,0.0075,0.0076,0.0172,0.0173,0,0,0,0,0,0,-0.0092,-0.0096,0.002,0.0021,-0.0045,-0.0025,-0.0018,0.0017,0.003,0.0033,0.0015,0.0013,0.0048,0.0053,0.0058,0.0082,0.0073,0.0076,0.0078,0.0171,0.0172,0.0173,0,0,0,0,0,0,-0.0095,-0.0081,0.0019,-0.0037,-0.0026,-0.002,0.0018,0.0018,0.0017,0.0037,0.0039,0.0015,0.0047,0.0054,0.0075,0.0084,0.0077,0.008,0.017,0.0171,0.0172,0.0143,0,0,0,0,0,0,-0.0099,-0.0081,-0.0073,-0.0034,-0.0022,0.0027,0.002,0.0019,0.0026,0.0023,0.0039,0.0042,0.0047,0.0071,0.0078,0.0088,0.0082,0.0169,0.017,0.0172,0.0143,0.0143,0.0143,0,0,0,0,0,-0.0105,-0.0101,-0.0071,-0.0059,-0.0002,0.0028,0.0029,0.0027,0.0027,0.0023,0.0033,0.0041,0.0087,0.0074,0.0082,0.0093,0.0168,0.017,0.0172,0.0143,0.0143,0.0143,0,0,0,0,0,0,-0.0191,-0.0101,-0.0069,-0.0042,-0.0005,0.0024,0.0011,0.0031,0.0037,0.0032,0.005,0.0054,0.0075,0.0096,0.0081,0.0128,0.0131,0.0134,0.0106,0.0107,0.0107,0.0083,0.0084,0,0,0,0,0,-0.0192,-0.0156,-0.0081,-0.0066,-0.0043,-0.0007,-0.0001,0.0014,0.0034,0.0034,0.0053,0.0073,0.0092,0.0106,0.0124,0.0155,0.0175,0.0171,0.0171,0.0171,0.0158,0.0222,0.0226,0.0179,0.0179,0.0179,0,0,-0.0228,-0.0172,-0.0156,-0.0081,-0.0057,-0.003,-0.0008,0.0008,0.0021,0.0043,0.005,0.0073,0.01,0.012,0.0134,0.0137,0.0191,0.0173,0.0172,0.016,0.0224,0.0229,0.0233,0.018,0.018,0.018,0,0,-0.0282,-0.0218,-0.0203,-0.016,-0.0101,-0.0066,-0.0054,-0.0003,0.0006,0.0036,0.0048,0.0076,0.0113,0.0128,0.0142,0.0163,0.0187,0.0177,0.0162,0.0224,0.0228,0.0232,0.0241,0.0245,0.0182,0.0181,0.0181,0,-0.0332,-0.0281,-0.0206,-0.0177,-0.0151,-0.0078,-0.0063,-0.0035,0.0011,0.0023,0.0032,0.0088,0.0114,0.0138,0.0139,0.0162,0.0184,0.0154,0.0223,0.0227,0.0232,0.024,0.0246,0.018,0.018,0.0181,0.0181,0,-0.0362,-0.0321,-0.0315,-0.0234,-0.02,-0.0178,-0.0103,-0.0074,-0.0038,-0.0006,0.003,0.0069,0.01,0.0123,0.0133,0.0177,0.0176,0.0211,0.0216,0.0234,0.0242,0.0249,0.0179,0.0179,0.0179,0.018,0,0,-0.0452,-0.0355,-0.0348,-0.0317,-0.0221,-0.0196,-0.0159,-0.0103,-0.0087,-0.0031,-0.0015,0.0035,0.0065,0.0083,0.0116,0.0169,0.0215,0.0198,0.0202,0.0194,0.0316,0.0303,0.0309,0.0269,0.027,0.0272,0.03,0,-0.0494,-0.0464,-0.0395,-0.0366,-0.0336,-0.0249,-0.0223,-0.0164,-0.0112,-0.0077,-0.0015,0.0011,0.0049,0.0064,0.0124,0.0182,0.0234,0.0201,0.031,0.0311,0.029,0.0318,0.0303,0.0327,0.0306,0.0307,0.0308,0,-0.0524,-0.0494,-0.0483,-0.0406,-0.0387,-0.0366,-0.0296,-0.0261,-0.0185,-0.0149,-0.0095,-0.0045,0.0011,0.006,0.0171,0.0148,0.0228,0.0286,0.0289,0.0291,0.0313,0.0313,0.034,0.0319,0.0318,0.0318,0.0317,0,-0.0602,-0.0543,-0.0541,-0.0513,-0.0428,-0.0415,-0.0373,-0.0294,-0.0264,-0.0196,-0.0173,-0.0091,-0.0056,0.0057,0.0167,0.0177,0.0295,0.033,0.0393,0.0391,0.0405,0.0402,0.044,0.044,0.044,0.044,0.044,0,-0.0642,-0.0629,-0.0582,-0.0573,-0.0565,-0.0485,-0.0467,-0.0411,-0.0346,-0.0318,-0.0223,-0.0191,-0.0045,0.0042,0.015,0.0269,0.0287,0.0383,0.0409,0.0391,0.0387,0.0407,0.0402,0.0441,0.0441,0.0441,0.0441,0,-0.0694,-0.0668,-0.0654,-0.0607,-0.0594,-0.0586,-0.0519,-0.0504,-0.0439,-0.0401,-0.0383,-0.0268,-0.0162,-0.0024,0.0146,0.0236,0.036,0.0412,0.0348,0.0366,0.0412,0.0406,0.047,0.047,0.047,0.047,0.047,0,-0.0703,-0.0712,-0.0695,-0.0694,-0.0671,-0.0649,-0.0633,-0.056,-0.0541,-0.0448,-0.0442,-0.0329,-0.0242,-0.0033,0.0145,0.0317,0.0359,0.0412,0.0445,0.0402,0.0421,0.0415,0.0409,0.044,0.044,0.0439,0.0439,0,-0.0719,-0.0734,-0.0731,-0.0745,-0.0742,-0.0728,-0.0704,-0.07,-0.062,-0.058,-0.0514,-0.0437,-0.0235,-0.005,0.0173,0.0284,0.0375,0.0413,0.0416,0.043,0.0376,0.0393,0.0388,0.0438,0.0438,0.0438,0.0438,0.0438,-0.0726,-0.075,-0.0771,-0.0777,-0.0791,-0.0802,-0.0784,-0.0766,-0.0733,-0.0648,-0.0575,-0.043,-0.0249,0.0067,0.0209,0.0359,0.0379,0.0446,0.0446,0.0447,0.0434,0.0383,0.044,0.044,0.044,0.0441,0.0441,0,-0.0708,-0.0763,-0.0789,-0.0801,-0.0815,-0.0825,-0.0823,-0.0797,-0.077,-0.0675,-0.0582,-0.035,-0.0145,0.0045,0.0275,0.0405,0.0411,0.0429,0.0421,0.0423,0.0424,0.041,0.041,0.041,0.041,0.041,0,0,-0.0703,-0.0748,-0.0779,-0.0811,-0.0827,-0.0844,-0.0843,-0.0825,-0.0758,-0.0646,-0.0515,-0.0358,-0.0125,0.0031,0.0191,0.0304,0.0327,0.0314,0.033,0.0303,0.0302,0.043,0.041,0,0,0,0,0]}],[{"header":{"parameterUnit":"m.s-1","parameterCategory":2,"la1":30.2991,"la2":30.254,"lo1":-89.0895,"lo2":-89.0444,"dy":0.0017,"dx":0.0017,"nx":28,"ny":28,"refTime":"2024-05-02T21:00:00:Z","depth":"4","parameterNumber":2,"parameterNumberName":"U-component_of_CURRENTS"},"data":[0,0,0,0,0,0,0,0,0,0,0,0,0,0,0,0,0,0,0,0,0,0,0,0,0,0,0,0,0,0,0,0,0,0,0,0,0,0,0,0,0,0,0,0,0,0,0,0,0,0,0,0,0,0,0,0,0,0,-0.035,-0.0351,0,-0.0371,-0.0371,-0.0372,-0.0391,-0.0391,-0.0391,-0.0391,-0.0406,-0.0406,-0.0407,0,0,0,0,0,0,0,0,0,0,0,0,0,-0.0369,-0.0368,-0.035,-0.0351,-0.0351,-0.0371,-0.0371,-0.0372,-0.0391,-0.0391,-0.0391,-0.0391,-0.0406,-0.0406,-0.0407,0,0,0,0,0,0,0,0,0,0,0,0,0,-0.0372,-0.0368,-0.035,-0.0363,-0.0364,-0.0371,-0.0371,-0.0372,-0.039,-0.0391,-0.0391,-0.0391,-0.0406,-0.0406,-0.0407,-0.0402,0,0,-0.0408,-0.0408,0,0,0,0,0,0,0,0,-0.0372,-0.0372,-0.0361,-0.0362,-0.0363,-0.0379,-0.0384,-0.0382,-0.039,-0.0381,-0.0391,-0.0392,-0.0396,-0.0397,-0.0401,-0.0403,-0.0403,-0.0408,-0.0408,-0.0408,-0.0408,0,0,0,0,0,0,0,-0.0372,-0.0371,-0.0359,-0.0361,-0.0362,-0.0381,-0.0382,-0.0383,-0.0386,-0.0381,-0.0383,-0.0385,-0.0397,-0.04,-0.0401,-0.0404,-0.0408,-0.0408,-0.0408,-0.0408,-0.0474,-0.0476,0,0,0,0,0,0,-0.0366,-0.0371,-0.0358,-0.0359,-0.0368,-0.0381,-0.0381,-0.0373,-0.0386,-0.0389,-0.0385,-0.0386,-0.04,-0.0401,-0.0402,-0.0469,-0.0408,-0.0408,-0.0408,-0.0473,-0.0475,-0.0476,0,0,0,0,0,0,-0.0366,-0.0364,-0.0357,-0.0366,-0.0367,-0.038,-0.0371,-0.0374,-0.0396,-0.0389,-0.0391,-0.0406,-0.04,-0.0401,-0.0435,-0.0467,-0.0408,-0.0409,-0.0471,-0.0473,-0.0476,-0.0558,0,0,0,0,0,0,-0.0367,-0.0364,-0.0367,-0.0365,-0.0366,-0.0369,-0.0371,-0.0374,-0.0395,-0.0397,-0.0407,-0.0408,-0.04,-0.0435,-0.0435,-0.0467,-0.0409,-0.0469,-0.0472,-0.0475,-0.0553,-0.0563,-0.0571,0,0,0,0,0,-0.0367,-0.0367,-0.0366,-0.0365,-0.0365,-0.0369,-0.0372,-0.0382,-0.0396,-0.0404,-0.0429,-0.0409,-0.0454,-0.0437,-0.0437,-0.0469,-0.0467,-0.0471,-0.0475,-0.0549,-0.0561,-0.0571,0,0,0,0,0,0,-0.0377,-0.0369,-0.0368,-0.0365,-0.037,-0.0372,-0.0385,-0.0395,-0.042,-0.0433,-0.043,-0.0433,-0.0471,-0.046,-0.0441,-0.0497,-0.0456,-0.046,-0.0513,-0.0524,-0.0533,-0.0523,-0.0409,0,0,0,0,0,-0.0378,-0.0375,-0.0372,-0.0372,-0.0377,-0.0386,-0.0394,-0.0403,-0.042,-0.0432,-0.0451,-0.0469,-0.0482,-0.0497,-0.0503,-0.0536,-0.0524,-0.0556,-0.0565,-0.0572,-0.0565,-0.0609,-0.0621,-0.0488,-0.0488,-0.0488,0,0,-0.0383,-0.0377,-0.0377,-0.0374,-0.0381,-0.039,-0.0393,-0.0411,-0.0436,-0.0429,-0.0486,-0.0498,-0.0497,-0.0537,-0.0553,-0.0536,-0.0602,-0.0577,-0.0583,-0.0572,-0.0614,-0.0627,-0.0638,-0.049,-0.049,-0.049,0,0,-0.0385,-0.0386,-0.0384,-0.0389,-0.0401,-0.0409,-0.0419,-0.0442,-0.0473,-0.0516,-0.0526,-0.0568,-0.0586,-0.0608,-0.0613,-0.0674,-0.0644,-0.0673,-0.0717,-0.076,-0.0771,-0.0781,-0.0771,-0.0779,-0.0683,-0.0683,-0.0683,0,-0.0389,-0.0383,-0.0387,-0.0389,-0.04,-0.0419,-0.0431,-0.0461,-0.0502,-0.0541,-0.0542,-0.0617,-0.062,-0.0676,-0.0695,-0.0696,-0.0693,-0.0678,-0.0772,-0.0782,-0.079,-0.0778,-0.0786,-0.0687,-0.0687,-0.0686,-0.0686,0,-0.0389,-0.0389,-0.0393,-0.0399,-0.0417,-0.0429,-0.0465,-0.0512,-0.0555,-0.0589,-0.067,-0.0696,-0.0736,-0.0752,-0.0737,-0.0806,-0.0774,-0.0777,-0.0745,-0.0809,-0.0791,-0.0798,-0.0694,-0.0692,-0.0691,-0.069,0,0,-0.0368,-0.0387,-0.0386,-0.0394,-0.0425,-0.0434,-0.0498,-0.0554,-0.0608,-0.0673,-0.0746,-0.0793,-0.082,-0.0827,-0.0839,-0.088,-0.0934,-0.0852,-0.0853,-0.0841,-0.0994,-0.0889,-0.0885,-0.096,-0.0962,-0.0963,-0.0952,0,-0.0361,-0.0365,-0.0385,-0.0403,-0.0411,-0.0461,-0.0517,-0.0581,-0.0646,-0.0727,-0.0793,-0.0853,-0.0846,-0.0874,-0.0919,-0.0935,-0.0958,-0.0934,-0.0933,-0.0932,-0.0832,-0.0892,-0.097,-0.0957,-0.0958,-0.0959,-0.096,0,-0.0344,-0.0351,-0.0364,-0.041,-0.0422,-0.045,-0.0546,-0.0598,-0.0716,-0.077,-0.0855,-0.09,-0.0977,-0.0958,-0.1025,-0.1011,-0.0996,-0.1004,-0.1004,-0.0879,-0.0841,-0.0883,-0.0972,-0.0971,-0.097,-0.0969,-0.0968,0,-0.0313,-0.0334,-0.0347,-0.0356,-0.0415,-0.0458,-0.051,-0.062,-0.0687,-0.0802,-0.086,-0.0954,-0.1005,-0.1038,-0.1027,-0.1043,-0.1069,-0.1098,-0.0985,-0.0976,-0.1035,-0.1025,-0.1127,-0.1128,-0.1128,-0.1128,-0.1128,0,-0.0289,-0.0294,-0.0334,-0.0338,-0.0378,-0.044,-0.0516,-0.0585,-0.0707,-0.0756,-0.0877,-0.0907,-0.103,-0.1053,-0.1044,-0.1011,-0.1079,-0.099,-0.0978,-0.1067,-0.1061,-0.1038,-0.1028,-0.1127,-0.1127,-0.1127,-0.1127,0,-0.0245,-0.0267,-0.0275,-0.0335,-0.0358,-0.039,-0.0505,-0.0564,-0.0682,-0.0751,-0.0789,-0.0904,-0.0939,-0.1012,-0.1046,-0.1017,-0.1002,-0.0955,-0.0999,-0.0989,-0.0882,-0.0877,-0.089,-0.0887,-0.0884,-0.0881,-0.0879,0,-0.0223,-0.022,-0.0256,-0.0265,-0.0291,-0.0355,-0.0404,-0.053,-0.0575,-0.0693,-0.07,-0.0801,-0.085,-0.0847,-0.0899,-0.0916,-0.0895,-0.0873,-0.0935,-0.0877,-0.0864,-0.0863,-0.0862,-0.0874,-0.0874,-0.0873,-0.0872,0,-0.0177,-0.0186,-0.0196,-0.0216,-0.0249,-0.0287,-0.0354,-0.0373,-0.0483,-0.0602,-0.0623,-0.0677,-0.0716,-0.0775,-0.079,-0.0779,-0.0903,-0.0843,-0.0851,-0.0909,-0.0858,-0.0848,-0.085,-0.0862,-0.0863,-0.0864,-0.0865,0,-0.014,-0.0133,-0.0149,-0.0165,-0.0193,-0.0197,-0.0244,-0.0292,-0.0363,-0.0496,-0.0453,-0.0563,-0.0654,-0.0691,-0.0665,-0.0701,-0.0734,-0.0722,-0.0737,-0.0749,-0.0713,-0.0627,-0.0552,0,0,0,0,0,-0.0098,-0.0094,-0.0104,-0.0115,-0.0139,-0.0158,-0.0199,-0.0246,-0.032,-0.0325,-0.0414,-0.0437,-0.0502,-0.0537,-0.0562,-0.06,-0.0716,-0.0619,-0.0704,-0.0804,-0.0816,-0.0788,0,0,0,0,0,0,-0.0077,-0.0073,-0.0085,-0.007,-0.0068,-0.0095,-0.0104,-0.0153,-0.0169,-0.0254,-0.0305,-0.04,-0.0481,-0.051,-0.0556,-0.057,-0.0608,-0.0692,-0.069,-0.0797,-0.0808,-0.0818,-0.0794,0,0,0,0,0]},{"header":{"parameterUnit":"m.s-1","parameterCategory":2,"la1":30.2991,"la2":30.254,"lo1":-89.0895,"lo2":-89.0444,"dy":0.0017,"dx":0.0017,"nx":28,"ny":28,"refTime":"2024-05-02T21:00:00:Z","depth":"4","parameterNumber":3,"parameterNumberName":"V-component_of_CURRENTS"},"data":[0,0,0,0,0,0,0,0,0,0,0,0,0,0,0,0,0,0,0,0,0,0,0,0,0,0,0,0,0,0,0,0,0,0,0,0,0,0,0,0,0,0,0,0,0,0,0,0,0,0,0,0,0,0,0,0,0,0,0.0022,0.0022,0,0.0015,0.0015,0.0015,0.0054,0.0055,0.0056,0.0057,0.0153,0.0155,0.0156,0,0,0,0,0,0,0,0,0,0,0,0,0,0.002,0.002,0.0022,0.0022,0.0022,0.0015,0.0015,0.0015,0.0053,0.0055,0.0056,0.0057,0.0153,0.0155,0.0156,0,0,0,0,0,0,0,0,0,0,0,0,0,0.0018,0.002,0.0022,0.004,0.0041,0.0015,0.0015,0.0015,0.0053,0.0055,0.0056,0.0058,0.0152,0.0154,0.0157,0.0139,0,0,0.0164,0.0165,0,0,0,0,0,0,0,0,0.0018,0.0019,0.0038,0.0039,0.004,0.0036,0.0049,0.0061,0.0053,0.0049,0.0057,0.0059,0.0122,0.0127,0.0122,0.0144,0.0148,0.0164,0.0166,0.0167,0.0167,0,0,0,0,0,0,0,0.0019,0.0019,0.002,0.0037,0.0039,0.0031,0.0033,0.0051,0.0079,0.005,0.0052,0.005,0.0124,0.0119,0.0124,0.0149,0.0164,0.0166,0.0168,0.0169,0.0226,0.0226,0,0,0,0,0,0,0.0019,0.0019,0.002,0.002,0.0032,0.003,0.0032,0.0036,0.0077,0.0084,0.0049,0.0052,0.0114,0.0122,0.0128,0.0153,0.0167,0.0169,0.017,0.0226,0.0226,0.0226,0,0,0,0,0,0,0.0019,0.0019,0.0021,0.0018,0.0018,0.0029,0.0033,0.0035,0.0044,0.0075,0.0084,0.0056,0.0116,0.0125,0.0153,0.0156,0.017,0.0172,0.0226,0.0226,0.0226,0.0176,0,0,0,0,0,0,0.0019,0.002,0.0019,0.0019,0.0018,0.0005,0.0031,0.0034,0.0039,0.0043,0.0084,0.0094,0.0118,0.0149,0.0155,0.0159,0.0174,0.0225,0.0226,0.0226,0.0178,0.0175,0.0172,0,0,0,0,0,0.0019,0.0014,0.0019,0.0019,0.0019,0.0004,0.0003,0.0016,0.0038,0.0032,0.0067,0.0093,0.0155,0.0151,0.0158,0.0163,0.0225,0.0226,0.0226,0.0179,0.0175,0.0172,0,0,0,0,0,0,0.0013,0.0017,0.0023,0.002,0.0013,0.0011,0.0006,0.0017,0.0036,0.0051,0.0088,0.0099,0.0124,0.015,0.0144,0.0181,0.0197,0.0199,0.0159,0.0156,0.0153,0.0144,0.0176,0,0,0,0,0,0.001,0.0008,0.0007,0.0001,-0.0,0.0004,0.0001,0.001,0.0025,0.0035,0.0068,0.0104,0.0126,0.0147,0.0169,0.0186,0.0201,0.0197,0.0194,0.0192,0.019,0.0218,0.0218,0.0227,0.0227,0.0227,0,0,0.0004,0.0006,0.0004,-0.0001,-0.0002,-0.0015,0.0007,0.0003,-0.0,0.0044,0.0063,0.0093,0.0127,0.0145,0.016,0.0171,0.0192,0.0192,0.0189,0.0189,0.0219,0.0218,0.0217,0.0227,0.0227,0.0227,0,0,-0.0013,-0.0004,-0.0013,-0.0021,-0.0025,-0.0026,-0.0025,-0.0018,-0.0004,0.0008,0.0042,0.0072,0.011,0.0132,0.0147,0.0143,0.0172,0.0159,0.0142,0.0169,0.0168,0.0168,0.016,0.0159,0.0163,0.0163,0.0163,0,-0.0017,-0.0027,-0.0021,-0.0034,-0.0044,-0.003,-0.0046,-0.0041,-0.0022,-0.0012,0.0014,0.0068,0.01,0.0117,0.012,0.0135,0.0148,0.0149,0.0164,0.0164,0.0165,0.0157,0.0157,0.016,0.0161,0.0161,0.0161,0,-0.0043,-0.0052,-0.0059,-0.007,-0.0082,-0.0092,-0.0088,-0.0081,-0.0056,-0.0047,-0.0016,0.0027,0.0063,0.0078,0.0099,0.0119,0.0123,0.0151,0.0168,0.016,0.0153,0.0154,0.0157,0.0158,0.0158,0.0159,0,0,-0.0038,-0.007,-0.007,-0.0086,-0.0098,-0.011,-0.0116,-0.0121,-0.0121,-0.0083,-0.0076,-0.0029,0.0008,0.0028,0.0066,0.0093,0.0099,0.0125,0.0128,0.0109,0.0137,0.0163,0.0166,0.0136,0.0137,0.0137,0.0121,0,-0.0056,-0.0092,-0.0102,-0.0136,-0.0152,-0.0151,-0.0164,-0.0164,-0.0149,-0.0139,-0.0088,-0.0063,-0.0015,0.0011,0.0043,0.0093,0.0104,0.0099,0.0156,0.0157,0.0175,0.017,0.0139,0.0122,0.0122,0.0122,0.0122,0,-0.0067,-0.0092,-0.0129,-0.0168,-0.0174,-0.0193,-0.0208,-0.0215,-0.0204,-0.0187,-0.015,-0.0113,-0.0064,-0.0021,0.0053,0.0053,0.0088,0.012,0.0121,0.0166,0.0186,0.014,0.0124,0.0124,0.0124,0.0124,0.0124,0,-0.006,-0.0106,-0.0138,-0.0151,-0.0193,-0.0204,-0.0216,-0.0222,-0.0229,-0.0206,-0.0205,-0.0145,-0.0108,-0.004,0.0035,0.0051,0.0101,0.0131,0.0172,0.0173,0.0175,0.0176,0.0164,0.0164,0.0164,0.0164,0.0164,0,-0.0069,-0.0089,-0.0137,-0.0152,-0.0188,-0.0208,-0.0237,-0.0236,-0.0245,-0.0264,-0.0216,-0.0208,-0.0105,-0.0063,0.0008,0.0093,0.0084,0.0164,0.0179,0.015,0.0149,0.0173,0.0175,0.0163,0.0163,0.0163,0.0163,0,-0.0051,-0.0083,-0.012,-0.0169,-0.0185,-0.0202,-0.0248,-0.0269,-0.0271,-0.0292,-0.0282,-0.0248,-0.017,-0.0094,0.0001,0.0058,0.0134,0.0155,0.0085,0.0096,0.0187,0.0186,0.0209,0.021,0.021,0.0211,0.0212,0,-0.0048,-0.0066,-0.0123,-0.0144,-0.0165,-0.02,-0.0231,-0.0263,-0.0294,-0.0316,-0.0328,-0.0273,-0.0235,-0.01,-0.0003,0.0119,0.0144,0.0155,0.0207,0.0183,0.0195,0.0193,0.0191,0.0213,0.0213,0.0213,0.0214,0,-0.0038,-0.0055,-0.0088,-0.0128,-0.0165,-0.0219,-0.0266,-0.0291,-0.0336,-0.0355,-0.0353,-0.0284,-0.0211,-0.0088,-0.0002,0.0089,0.0144,0.0164,0.0164,0.0213,0.0189,0.0199,0.0196,0.0216,0.0216,0.0216,0.0216,0,-0.0023,-0.004,-0.0078,-0.0111,-0.0156,-0.0209,-0.0249,-0.0296,-0.033,-0.0368,-0.0368,-0.0289,-0.0255,-0.0107,-0.0025,0.0074,0.0116,0.0138,0.014,0.0138,0.0142,0.0102,0.0113,0,0,0,0,0,-0.0007,-0.0022,-0.0056,-0.0106,-0.015,-0.0175,-0.0261,-0.0306,-0.0367,-0.0365,-0.0368,-0.0297,-0.0158,-0.0104,0.0005,0.0018,0.0143,0.0148,0.0172,0.0232,0.0229,0.0251,0,0,0,0,0,0,0.0001,-0.0023,-0.0047,-0.0087,-0.0107,-0.0173,-0.0218,-0.0273,-0.0283,-0.0323,-0.0246,-0.0255,-0.011,-0.0194,0.0022,0.0047,0.0076,0.0201,0.0203,0.0234,0.0231,0.0228,0.025,0,0,0,0,0]}]]